Keene, NH

5:26 AM EDT on July 25, 2017 (GMT -0400)
Dillant-Hopkins

Weather History for KEEN - November, 2014

Change the Weather History Date:

Saturday, November 8, 2014

  Actual Average Record
Temperature  
Mean Temperature 35 °F -  
Max Temperature 44 °F 49 °F 70 °F (1938)
Min Temperature 26 °F 31 °F 9 °F (1931)
Degree Days  
Heating Degree Days 30    
Moisture  
Dew Point 20 °F    
Average Humidity 49    
Maximum Humidity 69    
Minimum Humidity 34    
Precipitation  
Precipitation 0.00 in - - ()
Sea Level Pressure  
Sea Level Pressure 29.89 in    
Wind  
Wind Speed 4 mph (SW)    
Max Wind Speed 12 mph    
Max Gust Speed 20 mph    
Visibility 10 miles    
Events      
Averages and records for this station are not official NWS values.
T = Trace of Precipitation, MM = Missing Value Source: NWS Daily Summary

Daily Weather History Graph

Daily Weather History Graph

Search for Another Location

Airport or City:

Trip Planner

Search our weather history database for the weather conditions in past years. The results will help you decide how hot, cold, wet, or windy it might be!

Date:

Astronomy

Nov. 08, 2014 Rise Set
Actual Time 6:32 AM EST 4:32 PM EST
Civil Twilight 6:02 AM EST 5:02 PM EST
Nautical Twilight 5:28 AM EST 5:36 PM EST
Astronomical Twilight 4:55 AM EST 6:09 PM EST
Moon 6:10 PM EST (11/8) 8:06 AM EST (11/8)
Length of Visible Light 11h 00m
Length of Day
10h 00m
Waning Gibbous, 96% of the Moon is Illuminated
Nov 8
Waning Gibbous
Nov 14
Last Quarter
Nov 22
New
Nov 29
First Quarter
Dec 6
Full

Hourly Weather History & Observations

Time (EST) Temp. Windchill Dew Point Humidity Pressure Visibility Wind Dir Wind Speed Gust Speed Precip Events Conditions
12:15 AM 37.4 °F 32.8 °F 19.4 °F 48% 29.82 in 10.0 mi NNW 5.8 mph - N/A   Overcast
12:35 AM 35.6 °F 30.7 °F 19.4 °F 52% 29.82 in 10.0 mi NW 5.8 mph - N/A   Overcast
12:55 AM 35.6 °F 29.9 °F 19.4 °F 52% 29.82 in 10.0 mi WNW 6.9 mph - N/A   Overcast
1:15 AM 35.6 °F 28.0 °F 19.4 °F 52% 29.83 in 10.0 mi NW 10.4 mph 17.3 mph N/A   Overcast
1:35 AM 35.6 °F 30.7 °F 17.6 °F 48% 29.83 in 10.0 mi WNW 5.8 mph 17.3 mph N/A   Overcast
1:55 AM 35.6 °F 31.7 °F 17.6 °F 48% 29.84 in 10.0 mi WNW 4.6 mph 19.6 mph N/A   Overcast
2:15 AM 35.6 °F 29.9 °F 17.6 °F 48% 29.84 in 10.0 mi WNW 6.9 mph 17.3 mph N/A   Overcast
2:35 AM 35.6 °F 29.9 °F 17.6 °F 48% 29.85 in 10.0 mi WNW 6.9 mph - N/A   Overcast
2:55 AM 33.8 °F 27.7 °F 17.6 °F 52% 29.86 in 10.0 mi WNW 6.9 mph - N/A   Mostly Cloudy
3:15 AM 33.8 °F 30.8 °F 17.6 °F 52% 29.87 in 10.0 mi WNW 3.5 mph - N/A   Mostly Cloudy
3:35 AM 33.8 °F 28.6 °F 17.6 °F 52% 29.87 in 10.0 mi WNW 5.8 mph - N/A   Overcast
3:55 AM 33.8 °F 29.6 °F 17.6 °F 52% 29.88 in 10.0 mi West 4.6 mph - N/A   Overcast
4:15 AM 33.8 °F 27.7 °F 17.6 °F 52% 29.88 in 10.0 mi WNW 6.9 mph - N/A   Overcast
4:35 AM 33.8 °F 27.7 °F 15.8 °F 48% 29.88 in 10.0 mi WNW 6.9 mph - N/A   Partly Cloudy
4:55 AM 33.8 °F - 15.8 °F 48% 29.90 in 10.0 mi Calm Calm - N/A   Scattered Clouds
5:15 AM 33.8 °F - 15.8 °F 48% 29.92 in 10.0 mi Calm Calm - N/A   Overcast
5:35 AM 33.8 °F - 15.8 °F 48% 29.91 in 10.0 mi Calm Calm - N/A   Mostly Cloudy
5:55 AM 30.2 °F - 15.8 °F 55% 29.92 in 10.0 mi Calm Calm - N/A   Partly Cloudy
6:15 AM 28.4 °F 24.6 °F 15.8 °F 59% 29.92 in 10.0 mi South 3.5 mph - N/A   Clear
6:35 AM 28.4 °F - 15.8 °F 59% 29.93 in 10.0 mi Calm Calm - N/A   Clear
6:55 AM 26.6 °F 21.2 °F 15.8 °F 64% 29.93 in 10.0 mi South 4.6 mph - N/A   Clear
7:15 AM 26.6 °F - 17.6 °F 69% 29.93 in 10.0 mi Calm Calm - N/A   Clear
7:35 AM 28.4 °F - 17.6 °F 64% 29.93 in 10.0 mi Calm Calm - N/A   Clear
7:55 AM 28.4 °F - 17.6 °F 64% 29.94 in 10.0 mi Calm Calm - N/A   Clear
8:15 AM 30.2 °F - 19.4 °F 64% 29.93 in 10.0 mi Calm Calm - N/A   Clear
8:35 AM 33.8 °F - 17.6 °F 52% 29.95 in 10.0 mi Calm Calm - N/A   Clear
8:55 AM 35.6 °F - 17.6 °F 48% 29.96 in 10.0 mi Calm Calm - N/A   Clear
9:15 AM 37.4 °F 31.4 °F 17.6 °F 45% 29.96 in 10.0 mi SW 8.1 mph - N/A   Partly Cloudy
9:35 AM 37.4 °F - 17.6 °F 45% 29.96 in 10.0 mi Calm Calm - N/A   Partly Cloudy
9:55 AM 37.4 °F 32.8 °F 17.6 °F 45% 29.95 in 10.0 mi West 5.8 mph - N/A   Clear
10:15 AM 37.4 °F 32.8 °F 17.6 °F 45% 29.95 in 10.0 mi SW 5.8 mph - N/A   Clear
10:35 AM 39.2 °F 33.6 °F 17.6 °F 42% 29.94 in 10.0 mi SSW 8.1 mph - N/A   Clear
10:55 AM 39.2 °F 37.0 °F 17.6 °F 42% 29.92 in 10.0 mi South 3.5 mph - N/A   Clear
11:15 AM 39.2 °F - 17.6 °F 42% 29.92 in 10.0 mi Calm Calm - N/A   Clear
11:35 AM 41.0 °F - 17.6 °F 39% 29.90 in 10.0 mi Calm Calm - N/A   Clear
11:55 AM 41.0 °F 38.0 °F 17.6 °F 39% 29.89 in 10.0 mi West 4.6 mph - N/A   Clear
12:15 PM 42.8 °F 37.5 °F 17.6 °F 36% 29.89 in 10.0 mi SW 9.2 mph - N/A   Clear
12:35 PM 42.8 °F 39.3 °F 17.6 °F 36% 29.89 in 10.0 mi West 5.8 mph - N/A   Clear
12:55 PM 42.8 °F - 17.6 °F 36% 29.88 in 10.0 mi Calm Calm - N/A   Clear
1:15 PM 44.6 °F 41.4 °F 17.6 °F 34% 29.88 in 10.0 mi South 5.8 mph - N/A   Clear
1:35 PM 44.6 °F 40.2 °F 17.6 °F 34% 29.88 in 10.0 mi SSW 8.1 mph - N/A   Clear
1:55 PM 44.6 °F 41.4 °F 17.6 °F 34% 29.88 in 10.0 mi SW 5.8 mph - N/A   Clear
2:15 PM 44.6 °F 40.7 °F 19.4 °F 37% 29.88 in 10.0 mi WSW 6.9 mph - N/A   Clear
2:35 PM 44.6 °F 38.8 °F 19.4 °F 37% 29.88 in 10.0 mi SSW 11.5 mph - N/A   Clear
2:55 PM 44.6 °F 39.2 °F 19.4 °F 37% 29.88 in 10.0 mi SSW 10.4 mph - N/A   Clear
3:15 PM 44.6 °F 39.7 °F 19.4 °F 37% 29.87 in 10.0 mi South 9.2 mph - N/A   Clear
3:35 PM 44.6 °F 40.7 °F 19.4 °F 37% 29.87 in 10.0 mi SSW 6.9 mph - N/A   Clear
3:55 PM 44.6 °F 40.2 °F 21.2 °F 39% 29.87 in 10.0 mi SSW 8.1 mph - N/A   Clear
4:15 PM 42.8 °F 40.1 °F 21.2 °F 42% 29.87 in 10.0 mi SSW 4.6 mph - N/A   Clear
4:35 PM 42.8 °F 39.3 °F 21.2 °F 42% 29.87 in 10.0 mi South 5.8 mph - N/A   Clear
4:55 PM 41.0 °F 37.1 °F 21.2 °F 45% 29.86 in 10.0 mi South 5.8 mph - N/A   Clear
5:15 PM 41.0 °F 38.0 °F 21.2 °F 45% 29.87 in 10.0 mi SSW 4.6 mph - N/A   Clear
5:35 PM 39.2 °F - 23.0 °F 52% 29.88 in 10.0 mi Calm Calm - N/A   Clear
5:55 PM 39.2 °F 37.0 °F 24.8 °F 56% 29.87 in 10.0 mi South 3.5 mph - N/A   Clear
6:15 PM 39.2 °F 37.0 °F 23.0 °F 52% 29.87 in 10.0 mi SW 3.5 mph - N/A   Scattered Clouds
6:35 PM 37.4 °F - 24.8 °F 60% 29.87 in 10.0 mi Calm Calm - N/A   Overcast
6:55 PM 39.2 °F - 24.8 °F 56% 29.86 in 10.0 mi Calm Calm - N/A   Mostly Cloudy
7:15 PM 37.4 °F 32.8 °F 23.0 °F 56% 29.86 in 10.0 mi SW 5.8 mph - N/A   Scattered Clouds
7:35 PM 37.4 °F 32.8 °F 23.0 °F 56% 29.87 in 10.0 mi SSW 5.8 mph - N/A   Clear
7:55 PM 39.2 °F 35.0 °F 23.0 °F 52% 29.88 in 10.0 mi South 5.8 mph - N/A   Clear
8:15 PM 39.2 °F 35.9 °F 23.0 °F 52% 29.87 in 10.0 mi South 4.6 mph - N/A   Clear
8:35 PM 39.2 °F 37.0 °F 23.0 °F 52% 29.87 in 10.0 mi South 3.5 mph - N/A   Clear
8:55 PM 39.2 °F - 24.8 °F 56% 29.87 in 10.0 mi Calm Calm - N/A   Clear
9:15 PM 39.2 °F - 23.0 °F 52% 29.87 in 10.0 mi Calm Calm - N/A   Clear
9:35 PM 39.2 °F - 24.8 °F 56% 29.88 in 10.0 mi Calm Calm - N/A   Mostly Cloudy
9:55 PM 39.2 °F - 24.8 °F 56% 29.88 in 10.0 mi Calm Calm - N/A   Scattered Clouds
10:15 PM 39.2 °F - 24.8 °F 56% 29.87 in 10.0 mi Calm Calm - N/A   Scattered Clouds
10:35 PM 39.2 °F - 24.8 °F 56% 29.87 in 10.0 mi Calm Calm - N/A   Mostly Cloudy
10:55 PM 39.2 °F - 24.8 °F 56% 29.87 in 10.0 mi Calm Calm - N/A   Overcast
11:15 PM 39.2 °F - 24.8 °F 56% 29.87 in 10.0 mi Calm Calm - N/A   Overcast
11:35 PM 39.2 °F - 24.8 °F 56% 29.87 in 10.0 mi Calm Calm - N/A   Overcast
11:55 PM 39.2 °F - 24.8 °F 56% 29.87 in 10.0 mi Calm Calm - N/A   Overcast